Location: Presov
(49.0000°N, 21.2500°E)
Time: 10:41:43
(UTC+02:00)

A-11 Canister half - Pass Details

Date: 19 April 2021
Orbit: 1526 x 1683 km, 47.3° (Epoch: 11 May)

Event Time Altitude Azimuth Distance (km) Brightness Sun altitude
Rises 21:54:27 0° 289° (WNW) 4,940 12.7 -20.1°
Reaches altitude 10° 21:57:46 10° 284° (WNW) 3,950 11.9 -20.4°
Maximum altitude 22:07:14 46° 215° (SW) 2,123 9.6 -21.4°
Enters shadow 22:11:51 30° 164° (SSE) 2,666 9.7 -21.9°
